Pubblicità

Relazioni, Coppia, Famiglia

le risposte dellesperto relazioni coppia famiglia

Titolo Data pubblicazione Visite
Problemi con marito [1623427969990] 01 Luglio 2021 1321
Due nemici sotto lo stesso tetto [1618078137799] 26 Aprile 2021 399
Il mio compagno non viene accettato da mio figlio [1616144397861] 29 Marzo 2021 639
Il mio fidanzato mi umilia [1614021881345] 02 Marzo 2021 2638
Due mondi diversi [1609233895801] 24 Febbraio 2021 317
Genitori separati [1612775225644] 09 Febbraio 2021 302
Ragazzo insicuro e con ansia da prestazione [1610402462622] 20 Gennaio 2021 422
Situazione complessa [1610205584139] 16 Gennaio 2021 297
Genitori che non ti accettano [1604841682935] 24 Novembre 2020 339
sono dubbiosa sul futuro di mio figlio [1603284133906] 30 Ottobre 2020 610
Tradimento e incertezze [1603045350960] 21 Ottobre 2020 517
Come imparare ad andare [1599913536491] 21 Settembre 2020 434
crisi di mezza eta' [1596383154858] 09 Settembre 2020 819
Mancata separazione [1598982652567] 02 Settembre 2020 430
Un figlio non voluto dalla mamma [15967491246] 31 Agosto 2020 265
Dubbi esistenziali [1594757516693] 29 Luglio 2020 336
sindrome di rebecca [1594018537814] 14 Luglio 2020 1118
Dovrei stare con lui? (15796941885) 07 Febbraio 2020 636
Quando lei maltratta lui (1574831113125) 11 Dicembre 2019 606
Presa in giro (1574783413891) 11 Dicembre 2019 517
Sta con me ma ama ancora la sua ex? (1570428641955) 27 Novembre 2019 645
Problema cellulare (1572545674306) 20 Novembre 2019 395
senza via di uscita 2 (157236170832) 31 Ottobre 2019 598
Senza via di uscita (1571319488503) 21 Ottobre 2019 673
Indecisione e paura di essere felice (1569742705241) 01 Ottobre 2019 621
Non so più cosa voglio (156899247353) 24 Settembre 2019 679
Superare un tradimento (1567413219631) 09 Settembre 2019 580
Mia madre e il mio fidanzato (1567348985209) 05 Settembre 2019 625
Sofferenza per l'amante (1566977771624) 29 Agosto 2019 727
Rottura di un rapporto (1566312157147) 22 Agosto 2019 577
Marito assente (156491757332) 09 Agosto 2019 3141
Carla (1564835062431) 09 Agosto 2019 512
Relazione a distanza (1564826207449) 07 Agosto 2019 530
Tira e Molla (1563459070789) 30 Luglio 2019 652
Bisogno di aiuto (1563283445736) 18 Luglio 2019 537
Perdita improvvisa di un genitore (1560971827129) 21 Giugno 2019 586
Il mio compagno (156087164017) 19 Giugno 2019 606
Coppia e Famiglia (156040281321) 14 Giugno 2019 590
Sto male ( 1559035915307) 29 Maggio 2019 628
Coppia e Famiglia (1558572212226) 29 Maggio 2019 623
Confusione e stress (1553303959980) 27 Marzo 2019 655
Sig.ra (1553099447199) 26 Marzo 2019 720
Relazione di coppia patologica (1549839723728) 19 Febbraio 2019 1609
Complesso di inferiorità (1548926680437) 04 Febbraio 2019 1326
Tradimento e sofferenza (1548683540898) 31 Gennaio 2019 4120
Ansia perenne (1548091967786) 25 Gennaio 2019 698
Non so piu' che fare (1543328403961) 03 Dicembre 2018 746
Senso di colpa di per aver detto troppo (1540374819691) 16 Novembre 2018 708
Compagno con attacchi di rabbia (1541187657371) 12 Novembre 2018 818
Malumore in famiglia (1537254112650) 05 Ottobre 2018 974
Primo amore (1537874025567) 28 Settembre 2018 678
Il mio ragazzo mi ha allontanata (1534805529253) 18 Settembre 2018 1240
Rapporto con la figlia (1535788300280) 17 Settembre 2018 713
Crisi per tradimento (1534711372798) 11 Settembre 2018 858
Il mio ragazzo ha un'amica sua ex (153424269298) 10 Settembre 2018 915
Rapporto con mia madre (1535104881951) 06 Settembre 2018 842
Un NON rapporto con mio fratello (153469284498) 29 Agosto 2018 4722
Amore Bordeline? (1533557790479) 10 Agosto 2018 993
Ragazzo fuori controllo (1533508901303) 09 Agosto 2018 864
Difficoltà familiari (1532957995162) 03 Agosto 2018 866
Paternalismo nella coppia (153131547452) 26 Luglio 2018 2383
Marito che pensa solo alla sua famiglia (1531074224846) 17 Luglio 2018 2159
L'amore e la comunicazione (153081929712) 16 Luglio 2018 988
Infedeltà (1528369634858) 20 Giugno 2018 732
Una relazione finita... in clinica psichiatrica (1527834452910) 18 Giugno 2018 887
Signorina (1527419268970) 13 Giugno 2018 615
consulenza (1526474836350) 07 Giugno 2018 658
Carattere carissimo amico (1526471229152) 04 Giugno 2018 767
Superare il tradimento del marito (1527264851796) 31 Maggio 2018 857
Fine di un amore senza motivo (1526249055584) 22 Maggio 2018 1129
Sorella cattiva (1525386993641) 17 Maggio 2018 2633
Crisi di nervi (1525262146654) 16 Maggio 2018 996
Litigi: dalle pulizie ad un bimbo (1524496959496) 10 Maggio 2018 719
La mia ragazza mi tratta sempre peggio (1525036636879) 09 Maggio 2018 1344
Scatti d’ira del partner (1524331648729) 03 Maggio 2018 26324
Padre egoista (152386744999) 02 Maggio 2018 4057
Come posso far sì che ritorni? (1523626932948) 23 Aprile 2018 862
Marito confuso (1521708111477) 20 Aprile 2018 1344
Che fare? (1520934157214) 19 Aprile 2018 755
Amore non corrisposto (1521653985892) 17 Aprile 2018 1149
Ex mai dimenticato (1520597791398) 11 Aprile 2018 2366
Odio mio marito (1522265546342) 04 Aprile 2018 7605
Comportamento evitante? (1522244675308) 03 Aprile 2018 955
Famiglia d'origine interferisce con famiglia scelta (1518999055256) 16 Marzo 2018 929
Il comportamento più giusto (1517572917528) 12 Marzo 2018 765
Comunicazione a seguito di scoperta dell'identità di 2 fratelli adottati presso 2 famiglie diverse. (1518280912103) 08 Marzo 2018 699
io lui lei (1517583418670) 07 Marzo 2018 841
problemi con i suoceri (1517899846528) 27 Febbraio 2018 980
Ansia da pause di riflessione (1517225957396) 25 Febbraio 2018 4280
Effetti della separazione consensuale (1516562874427) 08 Febbraio 2018 937
problemi con la famiglia di mio marito (1515419703464) 06 Febbraio 2018 903
matrimonio, figli, amante (1513721077853) 12 Gennaio 2018 1122
Violenza fra parenti (1513435396434) 04 Gennaio 2018 828
La danza, da passione a ladra di tempo... (151118367456) 24 Novembre 2017 1020
problema convivenza (1509968405415) 09 Novembre 2017 962
Non capisco perché (1506543024129) 06 Novembre 2017 966
Consiglio (1507015426144) 16 Ottobre 2017 881
Problemi di coppia (1506954898731) 10 Ottobre 2017 1193
Paura di perdere mia madre (1506531733525) 05 Ottobre 2017 6336
Fallimento mio e del mio matrimonio (1506418376611) 03 Ottobre 2017 1237

Guarda anche...

Pubblicità

Pubblicità

I Sondaggi di Psiconline

Come reagisci alle notizie riguardanti l’immigrazione?

Pubblicità

Le Risposte dell'Esperto

Pensiero ossessivo (1624140870…

Fabio, 34 anni     Gentile Dottoressa/Dottore! Mi chiamo Fabio e 5 anni fà ho commesso un errore di tipo erotico.Ho cominciato a scambiare dei...

Problemi con marito [162342796…

Viola, 38 anni     Buongiorno, avrei bisogno di un consulto per dei problemi con mio marito.Mio marito è molto irascibile ma oltre a urlare no...

Ansia e paura nella guida [162…

Clarissa, 22 anni       Salve, vi scrivo perchè da un paio di mesi sto facendo le guide in autoscuola ma la sto vivendo un po' male...

Area Professionale

La trasmissione intergenerazio…

Modificazioni epigenetiche nei figli di sopravvissuti all’Olocausto I figli di persone traumatizzate hanno un rischio maggiore di sviluppare il disturbo post-t...

Il Protocollo CNOP-MIUR e gli …

di Catello Parmentola CNOP e MIUR hanno firmato nel 2020 un Protocollo d'intesa per il supporto psicologico nelle istituzioni scolastiche. Evento molto positiv...

Come gestire il transfert nega…

Per non soccombere alle proiezioni negative del transfert, lo psicoterapeuta deve conoscere con convinzione ciò che appartiene alla psiche del paziente e ciò ch...

Le parole della Psicologia

Istinto

Il termine istinto, come indica l'etimologia stessa (il termine latino “instinctus”, deriva da instinguere, incitare), è usato nel linguaggio ordinario per indi...

Identificazione proiettiva

“Ora mi sembra che l’esperienza del controtransfert abbia proprio una caratteristica particolare che dovrebbe permettere all’analista di distinguere le situazio...

Amok

"Follia rabbiosa, una specie di idrofobia umana... un accesso di monomania omicida, insensata, non paragonabile a nessun'altra intossicazione alcolica".» (Zweig...

News Letters